sat.trackr.live / text

‹ back to catalog

SKYKRAFT-1A

NORAD 55054 · 2023-001AX

PAYLOAD ACTIVE UNKNOWN

§ Identity

Operator
Country
AUS
Launch date
2023-01-03
Launch site
AFETR
Launch vehicle
Mass (kg)
RCS (m²)

External: N2YO · Heavens-Above · Gunter

§ Orbital elements

Epoch: 2026-09-21T16:35:08.664000Z

Period
94.11 min
Inclination
97.3115°
Eccentricity
0.0010378
Mean motion
15.30084967 rev/d
Perigee alt
468.4 km
Apogee alt
482.7 km
Semi-major
6,853.7 km
B*
1.2305e-4
RAAN
320.5701°
Arg perigee
141.4073°
Mean anomaly
218.7911°
Rev number
20,647

§ Raw data

SKYKRAFT-1A1 55054U 23001AX  26264.69107250  .00003512  00000+0  12305-3 0  99992 55054  97.3115 320.5701 0010378 141.4073 218.7911 15.30084967206475

JSON: /api/v1/satellites/55054 · /tle

For live sub-satellite position, see the globe view (requires WebGL).

§ Visibility from observer

Set your observer location to see the next 7 days of passes ≥ 10°. The values pass through the URL so the page stays shareable.

No JS? Fill the form by hand. The geolocation button needs JavaScript.